Tracking 29606 objects as of 18-Sep-2024
HD Live streaming from Space Station
objects crossing your sky now

ARIANE 1 DEB

Track ARIANE 1 DEB now!
10-day predictions


NORAD ID: 27596
Int'l Code: 1986-019VN
Perigee: 703.6 km
Apogee: 765.4 km
Inclination: 98.2 °
Period: 99.3 minutes
Semi major axis: 7105 km
RCS: 0.0098 m2 (small)
Launch date: February 22, 1986
Source: France (FR)
Launch site: FRENCH GUIANA (FRGUI)

Note: This is SATELLITE DEBRIS
Your satellite tracking list
Your tracking list is empty




NASA's NSSDC Master Catalog

Two Line Element Set (TLE):
1 27596U 86019VN  24261.94330431  .00008294  00000-0  21489-2 0  9994
2 27596  98.1923 241.4752 0043464 119.9777 299.6343 14.49472236521613
Source of the keplerian elements: AFSPC